Other Public Products
Issued by NWS Grand Forks, ND

Home | Current Version | Previous Version | Text Only | Print | Product List | Glossary Off
Versions: 1 2 3 4 5 6 7 8 9 10 11 12 13 14 15 16 17 18 19 20 21 22 23 24 25 26 27 28 29 30 31 32 33 34 35 36 37 38 39 40 41 42 43 44 45 46 47 48 49 50

000
FPUS83 KFGF 292331
OPUFGF
PRAIRIE TO PINES WEATHER ROUNDUP
NATIONAL WEATHER SERVICE EASTERN NORTH DAKOTA/GRAND FORKS ND
600 PM CDT WED JUL 29 2015

 **SATELLITE DATA USED TO AUGMENT SKY COVER AT AUTOMATED STATIONS**
 *****  WEATHER ACROSS EASTERN NORTH DAKOTA  *****

CITY           SKY/WX    TMP DP  RH WIND       PRES   REMARKS
GRAND FORKS    MOSUNNY   81  53  37 W26G40    29.84R
GRAND FORKS AF SUNNY     80  53  39 NW21G38   29.86R
GRAND CITY NWS   N/A     81 N/A N/A NW21        N/A
BUXTON         NOT AVBL
DEVILS LAKE    MOSUNNY   79  55  44 W18G32    29.91S
FARGO          MOSUNNY   82  55  39 W25G31    29.90F
WAHPETON ARPT  PTCLDY    79  50  36 NW15G22   29.95S
$$

 *****  WEATHER ACROSS CENTRAL AND WESTERN NORTH DAKOTA  *****

CITY           SKY/WX    TMP DP  RH WIND       PRES   REMARKS
JAMESTOWN      PTSUNNY   79  52  38 NW21G30   29.97S
BISMARCK       MOSUNNY   83  46  27 W16G23    30.04S
MINOT          SUNNY     81  48  31 W21G31    29.97S
MINOT AFB      SUNNY     82  49  31 NW21G31   29.96S
GARRISON         N/A     79  48  33 W16G23    30.02S
WILLISTON      MOSUNNY   83  43  24 NW21G30   30.05S
DICKINSON      MOSUNNY   80  44  27 NW18G25   30.08F
HETTINGER      SUNNY     81  38  21 NW22      30.13F
$$

 *****  OTHER OBSERVATIONS NORTHEAST NORTH DAKOTA  *****

CITY           SKY/WX    TMP DP  RH WIND       PRES   REMARKS
WALHALLA       FAIR      77  55  47 MISG      29.83R
LANGDON        FAIR      77  55  47 NW21G35   29.89R
CAVALIER       FAIR      77  57  50 NW9G20    29.82R
GRAFTON        FAIR      79  55  44 NW18G31   29.84R
CANDO          FAIR      75  55  50 NW17G24   29.92R
FORT TOTTEN      N/A     79  56  45 NW12      29.95
ROLLA          FAIR      73  55  53 NW20G31   29.93S
RUGBY          NOT AVBL
 ***** THE ABOVE OBSERVATIONS ARE NON NWS ARE NOT QUALITY
        CONTROLLED AND MAY MIS-REPORT RAIN FOR SNOW...
$$

 *****  OTHER OBSERVATIONS SOUTHEAST NORTH DAKOTA *****

CITY           SKY/WX    TMP DP  RH WIND       PRES   REMARKS
COOPERSTOWN    NOT AVBL
VALLEY CITY    FAIR      79  54  41 W22G35    29.96S
OAKES            N/A     81  55  41 W15       30.00S
GWINNER        FAIR      81  54  39 W15G29    29.99S
SHEYENNE NWR     N/A     80  53  38 NW14      29.95
BUFFALO        NOT AVBL
WYNDMERE       NOT AVBL
 ***** THE ABOVE OBSERVATIONS ARE NON NWS ARE NOT QUALITY
       CONTROLLED AND MAY MIS-REPORT RAIN FOR SNOW...
$$

  *****  WEATHER ACROSS NORTHERN MINNESOTA  *****

CITY           SKY/WX    TMP DP  RH WIND       PRES   REMARKS
FLAG ISLAND    CLOUDY    66  61  82 W31G47    29.75R HAZE
WARROAD        PTSUNNY   73  55  53 W22G31    29.77R
ROSEAU         SUNNY     73  55  53 W14G21    29.78R
HALLOCK        MOSUNNY   79  48  34 NW20G26   29.80R
THF RVR FALLS  PTSUNNY   77  52  41 W20G30    29.84R
HALSTAD        NOT AVBL
FOSSTON        MOSUNNY   75  52  43 W20G31    29.87S
BAUDETTE       PTSUNNY   74  53  48 W23G35    29.74R
WASKISH        SUNNY     75  55  50 W21G31    29.79R
CROOKSTON      SUNNY     81  54  39 NW17G31   29.86R
$$
  *****  WEATHER ACROSS CENTRAL AND WEST MINNESOTA  *****

CITY           SKY/WX    TMP DP  RH WIND       PRES   REMARKS
BEMIDJI        MOSUNNY   76  52  42 W24G36    29.85R
PARK RAPIDS    MOSUNNY   78  51  38 W25G35    29.89R
WADENA         MOSUNNY   77  52  41 W15G21    29.92S
DETROIT LAKES  MOSUNNY   77  52  41 NW17G30   29.93S
MOORHEAD       MOSUNNY   79  54  41 W18G30    29.92S
FERGUS FALLS   SUNNY     79  54  41 NW23G30   29.93S
ELBOW LAKE     FAIR      78  55  44 NW15G26   29.96S
MORRIS MN      SUNNY     81  55  41 NW16G22   29.97R
STAPLES        MOSUNNY   75  48  38 W22G30    29.91S
WHEATON        SUNNY     77  54  44 W16G28    29.99R
$$
  *****  WEATHER ELSEWHERE ACROSS MINNESOTA  *****

CITY           SKY/WX    TMP DP  RH WIND       PRES   REMARKS
DULUTH         MOSUNNY   78  54  43 W24G30    29.81R
INTRNTL FALLS  PTSUNNY   74  56  53 W14G28    29.71S
ELY            MOSUNNY   72  55  56 W15G24    29.74F
CLOQUET        MOSUNNY   77  48  36 W22G28    29.83R
BRAINERD       SUNNY     78  50  37 W14G26    29.89R
HIBBING        PTSUNNY   76  52  43 W16G26    29.80R
ALEXANDRIA     SUNNY     79  52  38 NW17G35   29.97R
SAINT CLOUD    SUNNY     81  52  36 W24G33    29.92S
MINNEAPOLIS    MOSUNNY   82  53  36 W23G36    29.94R
$$

  *****  WEATHER ACROSS SOUTH DAKOTA  *****

CITY           SKY/WX    TMP DP  RH WIND       PRES   REMARKS
SIOUX FALLS    MOSUNNY   83  52  34 W9G18     30.07F
BROOKINGS      SUNNY     81  54  39 NW15      30.08S
WATERTOWN      SUNNY     80  49  33 W23G30    30.05R
HURON          SUNNY     85  48  27 NW20G26   30.05S
SISSETON         N/A     80  53  39 NW15      29.98R
ABERDEEN       MOSUNNY   83  47  28 W25G35    30.02S
MITCHELL       SUNNY     86  50  28 W10G20    30.07F
PIERRE         SUNNY     87  39  18 W17       30.07F
MOBRIDGE       SUNNY     85  46  25 NW17G24   30.05S
RAPID CITY     SUNNY     84  43  23 CALM      30.17F
$$

  *****  SOME WEATHER IN NEARBY STATES *****

CITY           SKY/WX    TMP DP  RH WIND       PRES   REMARKS
GLASGOW MT     SUNNY     81  40  23 W8        30.08F
GREAT FALLS MT SUNNY     82  36  19 SW14G23   30.15F
CHEYENNE WY    MOSUNNY   77  47  34 SE13G22   30.30F
SCOTTSBLUFF NE MOSUNNY   86  48  26 S5        30.19F
OMAHA NE       PTSUNNY   82  57  42 W7        30.14S
DES MOINES IA  MOSUNNY   84  52  33 NW13      30.10S
DAVENPORT IA   SUNNY     81  60  48 W9        30.04F
CHICAGO IL     MOSUNNY   84  52  33 W15G21    29.96S
EAU CLAIRE WI  MOSUNNY   80  55  42 W21G28    29.91R
LA CROSSE WI   SUNNY     83  52  34 W23G36    29.95S
$$

  *****  SOME NATIONAL WEATHER *****

CITY           SKY/WX    TMP DP  RH WIND       PRES   REMARKS
LA GUARDIA NY  PTSUNNY   90  67  46 S12       29.90S HX  93
RALEIGH NC     MOSUNNY   89  69  51 SE8       29.94F HX  93
ATLANTA GA     PTSUNNY   87  73  62 E5        29.95S HX  94
NEW ORLEANS LA PTSUNNY   94  72  48 W5        29.96R THUNDER HX 102
OKLAHOMA CITY  MOSUNNY   94  70  45 S10G18    30.02F HX 100
ALBUQUERQUE NM CLOUDY    73  62  68 N8        30.27F
SALT LAKE CITY SUNNY     86  24  10 N9        30.22F
LOS ANGELES CA MOSUNNY   74  64  71 W15       29.92F
BOISE ID       SUNNY     88  31  13 VRB5      30.16F
SEATTLE WA     SUNNY     89  49  25 N12       30.13F
$$

*** WEATHER ACROSS MANITOBA...SASKATCHEWAN AND ONTARIO ***
                ***ONTARIO***

CITY           SKY/WX    TMP DP  RH WIND       PRES   REMARKS
GERALDTON      PTSUNNY   68  57  68 SW22G28   29.53S
THUNDER BAY    PTSUNNY   70  59  68 W20G37    29.63R
SIOUX LOOKOUT  LGT RAIN  63  61  94 W15G23    29.55R
TORONTO        PTSUNNY   84  68  58 SE7       29.84F
BIG TROUT LK   MOSUNNY   66  61  82 W5        29.27R
PICKLE LAKE    PTSUNNY   68  59  73 W7        29.38R
DRYDEN         LGT RAIN  63  59  88 W22G33    29.62R FOG
KENORA         LGT RAIN  63  59  88 W16G28    29.69R
$$
                *** MANITOBA***

CITY           SKY/WX    TMP DP  RH WIND       PRES   REMARKS
BRANDON        PTSUNNY   75  57  53 NW20G29   29.87S
DAUPHIN        SUNNY     77  50  38 NW18G31   29.81R
ISLAND LAKE    LGT RAIN  59  57  94 NW17      29.47R
PILOT MOUND      N/A     75  55  50 NW18G29     N/A
THE PAS        MOSUNNY   72  59  64 N6        29.76R
THOMPSON       PTSUNNY   63  57  82 N6        29.68R
WINNIPEG       PTSUNNY   75  57  53 NW16G26   29.77R
LYNN LAKE        N/A    N/A N/A N/A MISG        N/A
CHURCHILL      CLOUDY    50  48  93 N17       29.61R FOG
GILLAM         LGT RAIN  55  54  94 N18G29    29.56R
$$
                ***SASKATCHEWAN***

CITY           SKY/WX    TMP DP  RH WIND       PRES   REMARKS
ESTEVAN        MOSUNNY   79  50  36 NW22G29   30.01R
KINDERSLEY     PTSUNNY   75  48  38 N7        30.02S
LLOYDMINSTER   PTSUNNY   73  45  35 W18       30.00S
PRINCE ALBERT  PTSUNNY   75  52  43 W18       29.87S
REGINA         MOSUNNY   77  50  38 NW21G29   29.99


USA.gov is the U.S. government's official web portal to all federal, state and local government web resources and services.